Terug naar catalogus

TITAN 34D TRANSTAGE DEB

LostGTO
NORAD 44362·DEBRIS·🇺🇸 United States

Gelanceerd Sep 2, 1988 vanaf Cape Canaveral Space Force Station

Loading…

TLE

VerouderdSource: Space-Track

Epoch: Feb 13, 2022, 18:00 UTC

1 44362U 88077V   22044.75047762  .00000661  00000-0  99327-3 0  9995
2 44362  26.7659 270.6167 7146869 257.2427  20.8454  2.40354477 22952

Volg TITAN 34D TRANSTAGE DEB in realtime met AllMySat

Download on the App Store